sat.trackr.live / text

‹ back to catalog

STARLINK-5614

NORAD 55756 · 2023-028R

PAYLOAD ACTIVE UNKNOWN

§ Identity

Operator
Country
US
Launch date
2023-03-03
Launch site
AFWTR
Launch vehicle
Mass (kg)
RCS (m²)

Purposes: comms

External: N2YO · Heavens-Above · Gunter

§ Orbital elements

Epoch: 2026-05-25T02:56:01.517856Z

Period
96.11 min
Inclination
70.0005°
Eccentricity
0.0002653
Mean motion
14.98330025 rev/d
Perigee alt
570.2 km
Apogee alt
573.9 km
Semi-major
6,950.2 km
B*
2.3068e-5
RAAN
51.5585°
Arg perigee
266.4895°
Mean anomaly
93.5961°
Rev number
17,749

§ Raw data

STARLINK-56141 55756U 23028R   26145.12223979  .00000182  00000+0  23068-4 0  99992 55756  70.0005  51.5585 0002653 266.4895  93.5961 14.98330025177493

JSON: /api/v1/satellites/55756 · /tle

For live sub-satellite position, see the globe view (requires WebGL).

§ Visibility from observer

Set your observer location to see the next 7 days of passes ≥ 10°. The values pass through the URL so the page stays shareable.

No JS? Fill the form by hand. The geolocation button needs JavaScript.